TimeEDT,TemperatureF,Dew PointF,Humidity,Sea Level PressureIn,VisibilityMPH,Wind Direction,Wind SpeedMPH,Gust SpeedMPH,PrecipitationIn,Events,Conditions,WindDirDegrees,DateUTC
12:07 AM,62.6,60.8,94,29.88,6.0,SW,8.1,18.4,0.00,Rain,Light Rain,230,2013-05-11 04:07:00
12:19 AM,62.6,60.8,94,29.87,2.5,WSW,10.4,-,0.04,Rain,Rain,250,2013-05-11 04:19:00
12:37 AM,62.6,60.8,94,29.87,3.0,WSW,6.9,-,0.10,Rain,Light Rain,250,2013-05-11 04:37:00
12:44 AM,62.6,60.8,94,29.87,8.0,WSW,6.9,-,0.11,Rain,Light Rain,250,2013-05-11 04:44:00
12:53 AM,63.0,61.0,93,29.86,10.0,WSW,6.9,-,0.11,,Overcast,250,2013-05-11 04:53:00
1:34 AM,62.6,60.8,94,29.88,10.0,WSW,8.1,-,0.00,,Overcast,250,2013-05-11 05:34:00
1:42 AM,62.6,60.8,94,29.88,10.0,WSW,6.9,-,0.00,,Overcast,240,2013-05-11 05:42:00
1:49 AM,62.6,60.8,94,29.87,10.0,Variable,5.8,-,0.00,,Overcast,0,2013-05-11 05:49:00
1:53 AM,62.1,61.0,96,29.86,10.0,WSW,5.8,-,0.00,,Overcast,240,2013-05-11 05:53:00
1:55 AM,62.6,60.8,94,29.87,10.0,WSW,5.8,-,N/A,,Overcast,240,2013-05-11 05:55:00
2:20 AM,62.6,60.8,94,29.87,10.0,WSW,5.8,-,N/A,,Overcast,250,2013-05-11 06:20:00
2:35 AM,62.6,60.8,94,29.87,10.0,SW,5.8,-,N/A,,Overcast,230,2013-05-11 06:35:00
2:53 AM,62.1,60.1,93,29.85,10.0,West,5.8,-,N/A,,Overcast,260,2013-05-11 06:53:00
3:08 AM,62.6,60.8,94,29.86,10.0,SW,5.8,-,N/A,,Mostly Cloudy,230,2013-05-11 07:08:00
3:28 AM,62.6,60.8,94,29.86,10.0,WSW,4.6,-,N/A,,Mostly Cloudy,250,2013-05-11 07:28:00
3:53 AM,62.1,60.1,93,29.85,10.0,SW,4.6,-,N/A,,Overcast,220,2013-05-11 07:53:00
4:05 AM,62.6,60.8,94,29.86,10.0,WSW,4.6,-,N/A,,Overcast,250,2013-05-11 08:05:00
4:24 AM,62.6,60.8,94,29.85,10.0,SSW,8.1,-,N/A,,Overcast,210,2013-05-11 08:24:00
4:42 AM,62.6,60.8,94,29.85,9.0,SSW,6.9,-,N/A,,Overcast,200,2013-05-11 08:42:00
4:53 AM,62.1,60.1,93,29.83,9.0,SSW,6.9,-,N/A,,Mostly Cloudy,210,2013-05-11 08:53:00
5:50 AM,62.6,60.8,94,29.83,8.0,South,4.6,-,0.00,,Overcast,190,2013-05-11 09:50:00
5:53 AM,62.1,60.1,93,29.83,8.0,South,4.6,-,0.00,,Overcast,190,2013-05-11 09:53:00
6:21 AM,62.6,60.8,94,29.84,8.0,SW,5.8,-,N/A,,Overcast,220,2013-05-11 10:21:00
6:28 AM,62.6,60.8,94,29.84,7.0,SSW,5.8,-,0.00,Rain,Light Rain,210,2013-05-11 10:28:00
6:37 AM,62.6,60.8,94,29.84,2.5,SSW,6.9,-,0.05,Rain,Heavy Rain,210,2013-05-11 10:37:00
6:45 AM,60.8,60.8,100,29.84,3.0,SW,4.6,-,0.06,Rain,Light Rain,220,2013-05-11 10:45:00
6:53 AM,61.0,60.1,97,29.83,4.0,SSW,5.8,-,0.07,Rain,Light Rain,210,2013-05-11 10:53:00
7:00 AM,62.6,60.8,94,29.83,5.0,SW,5.8,-,0.00,Rain,Light Rain,220,2013-05-11 11:00:00
7:53 AM,61.0,59.0,93,29.85,6.0,WNW,11.5,-,0.02,Rain,Light Rain,300,2013-05-11 11:53:00
8:10 AM,60.8,57.2,88,29.85,5.0,WNW,9.2,17.3,0.01,Rain,Light Rain,300,2013-05-11 12:10:00
8:53 AM,60.1,57.9,93,29.85,5.0,WNW,5.8,-,0.01,,Overcast,290,2013-05-11 12:53:00
9:53 AM,59.0,55.9,90,29.86,6.0,NW,6.9,-,N/A,,Overcast,310,2013-05-11 13:53:00
10:53 AM,61.0,54.0,78,29.87,10.0,West,10.4,-,N/A,,Overcast,280,2013-05-11 14:53:00
11:00 AM,60.8,53.6,77,29.88,10.0,West,8.1,-,N/A,,Overcast,260,2013-05-11 15:00:00
11:53 AM,61.0,54.0,78,29.87,10.0,West,8.1,-,N/A,,Overcast,280,2013-05-11 15:53:00
12:53 PM,59.0,53.1,81,29.88,10.0,West,6.9,-,N/A,,Overcast,270,2013-05-11 16:53:00
1:53 PM,57.9,52.0,81,29.89,10.0,WNW,8.1,-,N/A,,Overcast,300,2013-05-11 17:53:00
2:53 PM,59.0,52.0,78,29.88,10.0,West,6.9,18.4,0.00,,Overcast,260,2013-05-11 18:53:00
3:49 PM,59.0,51.8,77,29.88,10.0,WNW,11.5,16.1,N/A,,Overcast,290,2013-05-11 19:49:00
3:53 PM,60.1,52.0,75,29.87,10.0,West,6.9,16.1,N/A,,Overcast,280,2013-05-11 19:53:00
4:53 PM,59.0,50.0,72,29.87,10.0,West,6.9,-,N/A,,Overcast,270,2013-05-11 20:53:00
5:37 PM,59.0,50.0,72,29.88,10.0,West,9.2,-,N/A,,Overcast,260,2013-05-11 21:37:00
5:53 PM,59.0,50.0,72,29.88,10.0,West,10.4,-,N/A,,Overcast,260,2013-05-11 21:53:00
6:53 PM,57.9,48.9,72,29.88,10.0,West,9.2,-,N/A,,Overcast,270,2013-05-11 22:53:00
7:53 PM,57.0,50.0,77,29.89,10.0,WNW,5.8,-,N/A,,Overcast,300,2013-05-11 23:53:00
8:07 PM,57.2,50.0,77,29.90,10.0,Variable,4.6,-,N/A,,Overcast,0,2013-05-12 00:07:00
8:17 PM,57.2,50.0,77,29.90,10.0,West,5.8,-,N/A,,Overcast,280,2013-05-12 00:17:00
8:53 PM,55.9,50.0,80,29.89,10.0,West,4.6,-,N/A,,Overcast,270,2013-05-12 00:53:00
9:10 PM,55.4,50.0,82,29.91,10.0,SW,3.5,-,N/A,,Mostly Cloudy,230,2013-05-12 01:10:00
9:53 PM,53.1,48.9,86,29.92,10.0,WSW,4.6,-,N/A,,Clear,240,2013-05-12 01:53:00
10:53 PM,53.1,48.9,86,29.93,10.0,South,4.6,-,N/A,,Overcast,190,2013-05-12 02:53:00